Weather in Yubileyny

Russia / Zabaykalsky Krai     50°16′06″N   118°21′34″E
temp.,
°C
wind,
m/s
gust,
m/s
humid.,
%
clouds,
%
prec.,
mm/h
press.,
hPa
HPBL,
m
16 june, wed
wed1600:00+18wnw3646100 0.0 1001135
03:00+13w2481100 1.6 1003141
06:00+11nnw2493100 7.4 1003260
09:00+11nne4993100 11.2 1002512
12:00+12nne5894100 3.9 999427
15:00+12n4694100 7.3 997439
18:00+12nw51094100 5.1 995697
21:00+12nw51087100 6.3 994603
17 june, thu
thu1700:00+11nw61289100 0.4 993904
03:00+10nw81588100 1.4 9911141
06:00+10wnw81490100 5.5 9911238
09:00+10wnw61291100 12.9 9891493
12:00+9wnw81489100 2.6 9881490
15:00+10nw81588100 7.3 9871482
18:00+10nw91587100 4.1 9871312
21:00+10wnw61288100 6.2 986957
18 june, fri
fri1800:00+9nw61389100 2.9 9871063
03:00+10nw4893100 4.7 986450
06:00+10n2394100 0.2 988150
09:00+10e1191100 0.3 989194
12:00+10e1293100 1.4 991194
15:00+10nne2492100 2.3 992286
18:00+11nnw3583100 0.1 993484
21:00+10nw368898 0.2 993191
19 june, sat
sat1900:00+9w1195100 1.8 99418
03:00+9ne1195100 2.6 99444
06:00+9ne2596100 0.6 995251
09:00+9n3694100 1.5 996402
12:00+12ne5685100 0.6 997687
15:00+12ene4788100 3.3 999486
18:00+15ne667484 0.7 9991073
21:00+12nne3888100 1.0 1001192
20 june, sun
sun2000:00+10nne3493100 0.0 100399
03:00+9n339570 0.0 100452
06:00+11n259291 0.0 1006164
09:00+15ne577858 0.1 1006706
12:00+17ene677389 1.5 10071196
15:00+18ene556491 2.1 10071350
18:00+18ene4566100 0.4 10081072
21:00+15ene228599 1.4 100922